Location: Calais Saint-Pierre
(50.9509°N, 1.8522°E)
Time: 16:10:32
(UTC+00:00)

TSX-5 - Pass Details

Date: 15 May 2026
Orbit: 387 x 992 km, 68.9° (Epoch: 10 June)

Event Time Altitude Azimuth Distance (km) Brightness Sun altitude
Rises 22:24:53 0° 326° (NW) 2,292 8.5 -17.6°
Reaches altitude 10° 22:26:51 10° 326° (NW) 1,449 7.2 -17.7°
Maximum altitude 22:29:59 85° 240° (WSW) 425 3.1 -17.9°
Enters shadow 22:30:31 60° 157° (SSE) 490 3.2 -17.9°
